Quebec, Quebec

5:00 PM EDT on October 18, 2017 (GMT -0400)
Quebec

Weather History for CYQB - June, 2014

Change the Weather History Date:

Sunday, June 8, 2014

  Actual Average Record
Temperature  
Mean Temperature 66 °F -  
Max Temperature 82 °F 73 °F 86 °F (2008)
Min Temperature 50 °F 52 °F 45 °F (2012)
Cooling Degree Days 1    
Growing Degree Days 16 (Base 50)    
Moisture  
Dew Point 56 °F    
Average Humidity 65    
Maximum Humidity 100    
Minimum Humidity 20    
Precipitation  
Precipitation 0.02 in 0.15 in - ()
Sea Level Pressure  
Sea Level Pressure 29.87 in    
Wind  
Wind Speed 4 mph ()    
Max Wind Speed 14 mph    
Max Gust Speed -    
Visibility 18.8 miles    
Events      
Averages and records for this station are not official NWS values.
T = Trace of Precipitation, MM = Missing Value Source: Averaged Metar Reports

Daily Weather History Graph

Daily Weather History Graph

Search for Another Location

Airport or City:

Trip Planner

Search our weather history database for the weather conditions in past years. The results will help you decide how hot, cold, wet, or windy it might be!

Date:

Astronomy

Jun. 08, 2014 Rise Set
Actual Time 4:51 AM EDT 8:37 PM EDT
Civil Twilight 4:12 AM EDT 9:16 PM EDT
Nautical Twilight 3:20 AM EDT 10:09 PM EDT
Astronomical Twilight 2:05 AM EDT 11:25 PM EDT
Moon 3:36 PM EDT (6/8) 2:01 AM EDT (6/8)
Length of Visible Light 17h 03m
Length of Day
15h 45m
Waxing Gibbous, 77% of the Moon is Illuminated
Jun 8
Waxing Gibbous
Jun 13
Full
Jun 19
Last Quarter
Jun 27
New
Jul 5
First Quarter

Hourly Weather History & Observations

Time (EDT) Temp. Heat Index Dew Point Humidity Pressure Visibility Wind Dir Wind Speed Gust Speed Precip Events Conditions
12:00 AM 62.6 °F - 57.2 °F 82% 29.89 in 20.0 mi NNW 2.3 mph - N/A   Partly Cloudy
1:00 AM 60.8 °F - 55.4 °F 82% 29.89 in 20.0 mi North 4.6 mph - N/A   Clear
2:00 AM 55 °F - 53 °F 88% 29.88 in - WNW 1.2 mph - -  
2:00 AM 59.0 °F - 53.6 °F 82% 29.89 in 15.0 mi Calm Calm - N/A   Clear
3:00 AM 59.0 °F - 51.8 °F 77% 29.89 in 15.0 mi North 3.5 mph - N/A   Clear
4:00 AM 55.4 °F - 51.8 °F 88% 29.88 in 15.0 mi Calm Calm - N/A   Partly Cloudy
5:00 AM 52 °F - 51 °F 94% 29.88 in - West 1.2 mph - -  
5:00 AM 53.6 °F - 53.6 °F 100% 29.89 in 30.0 mi Calm Calm - N/A   Partly Cloudy
6:00 AM 55.4 °F - 53.6 °F 94% 29.90 in 20.0 mi Calm Calm - N/A   Partly Cloudy
7:00 AM 60.8 °F - 57.2 °F 88% 29.91 in 20.0 mi Variable 2.3 mph - N/A   Scattered Clouds
8:00 AM 64 °F - 59 °F 79% 29.90 in - West 4.6 mph - -  
8:00 AM 64.4 °F - 57.2 °F 77% 29.92 in 20.0 mi SW 6.9 mph - N/A   Scattered Clouds
9:00 AM 68.0 °F - 60.8 °F 78% 29.91 in 20.0 mi Variable 2.3 mph - N/A   Mostly Cloudy
10:00 AM 69.8 °F - 60.8 °F 73% 29.91 in 20.0 mi SSE 5.8 mph - N/A   Mostly Cloudy
11:00 AM 74 °F - 59 °F 50% 29.89 in - South 3.5 mph - -  
11:00 AM 73.4 °F - 59.0 °F 61% 29.90 in 25.0 mi WSW 6.9 mph - N/A   Mostly Cloudy
12:00 PM 77.0 °F - 60.8 °F 57% 29.89 in 25.0 mi SW 6.9 mph - N/A   Mostly Cloudy
2:00 PM 82 °F - 59 °F 35% 29.84 in - WSW 8.1 mph - -  
2:00 PM 82.4 °F 82.9 °F 60.8 °F 48% 29.85 in 30.0 mi SSW 13.8 mph - N/A   Mostly Cloudy
3:00 PM 84.2 °F 83.0 °F 55.4 °F 37% 29.85 in 30.0 mi WSW 12.7 mph - N/A   Mostly Cloudy
4:00 PM 84.2 °F - 51.8 °F 33% 29.83 in 30.0 mi SW 13.8 mph - N/A   Mostly Cloudy
5:00 PM 82 °F - 48 °F 20% 29.81 in - WSW 8.1 mph - -  
5:00 PM 82.4 °F - 51.8 °F 35% 29.82 in 30.0 mi WSW 10.4 mph - N/A   Mostly Cloudy
6:00 PM 80.6 °F - 51.8 °F 37% 29.82 in 30.0 mi WSW 10.4 mph - N/A   Mostly Cloudy
7:00 PM 78.8 °F - 57.2 °F 47% 29.82 in 30.0 mi WSW 8.1 mph - N/A   Mostly Cloudy
8:00 PM 73 °F - 56 °F 45% 29.81 in - WSW 2.3 mph - -  
8:00 PM 75.2 °F - 55.4 °F 50% 29.82 in 30.0 mi West 4.6 mph - N/A   Mostly Cloudy
9:00 PM 69.8 °F - 55.4 °F 60% 29.83 in 20.0 mi WSW 3.5 mph - N/A   Mostly Cloudy
10:00 PM 68.0 °F - 55.4 °F 64% 29.84 in 20.0 mi WSW 5.8 mph - N/A   Mostly Cloudy
11:00 PM 61 °F - 56 °F 80% 29.82 in - Calm Calm - -  
11:00 PM 66.2 °F - 55.4 °F 68% 29.84 in 20.0 mi Calm Calm - N/A   Overcast